Location: Unspecified
(0.0000°N, 0.0000°E)
Time: 19:15:36
(UTC+00:00)

CUBESAT XI-V - Pass Details

Date: 17 December 2017
Orbit: 669 x 694 km, 97.9° (Epoch: 17 June)

Event Time Altitude Azimuth Distance (km) Brightness Sun altitude
Rises 03:17:45 0° 151° (SSE) 3,021 ? -35.8°
Reaches altitude 10° 03:20:10 10° 141° (SE) 2,108 ? -35.3°
Enters shadow 03:22:55 27° 111° (ESE) 1,291 ? -34.7°
